Regional Weather Roundup
Issued by NWS State College, PA

Home | Current Version | Previous Version | Graphics & Text | Print | Product List | Glossary Off
Versions: 1 2 3 4 5 6 7 8 9 10 11 12 13 14 15 16 17 18 19 20 21 22 23 24 25 26 27 28 29 30 31 32 33 34 35 36 37 38 39 40 41 42 43 44 45 46 47 48 49 50

000
ASUS41 KCTP 020003
RWRCTP

REGIONAL WEATHER ROUNDUP
NATIONAL WEATHER SERVICE STATE COLLEGE PA
800 PM EDT MON JUN 01 2015

Note: "fair" indicates few or no clouds below 12,000 feet with no
significant weather and/or obstructions to visibility.

* = STATION THAT DOES NOT REPORT PRECIPITATION /E.G. RAIN...SNOW...ETC/
    THUNDER OR FOG.

PAZ002>004-007>009-013>016-020>023-029>032-020100-
WESTERN PENNSYLVANIA

CITY           SKY/WX    TMP DP  RH WIND       PRES   REMARKS
ERIE           CLOUDY    53  47  79 NE12      30.17S
MEADVILLE      CLOUDY    50  46  86 NE8       30.16R
FRANKLIN*      CLOUDY    50  45  81 N8        30.16S
NEW CASTLE     CLOUDY    52  49  89 N3        30.16S
BEAVER COUNTY  CLOUDY    50  48  93 N8        30.14R
BUTLER*        CLOUDY    52  48  87 NE6       30.15S
PITTSBURGH INT CLOUDY    54  49  83 N12       30.13R
PITTSBURGH     CLOUDY    54  47  77 N7        30.11R
INDIANA*       CLOUDY    55  52  88 CALM      30.14S
LATROBE        CLOUDY    55  54  94 N7        30.13R
WASHINGTON CO* CLOUDY    54  48  82 N7        30.14S
$$

PAZ004>006-010>012-017>019-024>028-033>037-041-042-045-046-049>053-020100-
CENTRAL PENNSYLVANIA

CITY           SKY/WX    TMP DP  RH WIND       PRES   REMARKS
BRADFORD       CLOUDY    50  47  89 N3        30.15R
DUBOIS         CLOUDY    54  49  83 N9        30.12R
CLEARFIELD     CLOUDY    55  50  83 N12       30.11S
JOHNSTOWN      CLOUDY    53  49  86 NE5       30.10R
ALTOONA        CLOUDY    58  51  78 N9        30.10R
STATE COLLEGE  CLOUDY    59  54  82 N6        30.10R
WILLIAMSPORT   CLOUDY    62  53  72 N5        30.08R
SELINSGROVE    CLOUDY    65  57  75 N12       30.07R
FT INDIANTOWN  CLOUDY    62  61  94 E6        30.06R
CAPITAL CITY   LGT RAIN  66  62  87 E9        30.04R FOG
HARRISBURG     LGT RAIN  66  63  90 NE7       30.03R FOG
YORK           RAIN      67  66  97 E7        30.03R FOG
$$

PAZ038>040-043-044-047-048-054-055-060>062-067>071-020100-
EASTERN PENNSYLVANIA

CITY           SKY/WX    TMP DP  RH WIND       PRES   REMARKS
SCRANTON       CLOUDY    59  54  83 NE7       30.10R
MOUNT POCONO   FOG       52  50  93 E8        30.11S VSB 1
ALLENTOWN      RAIN      58  56  93 E8        30.09S FOG
QUAKERTOWN*    CLOUDY    57  55  94 NE6       30.09F
READING        CLOUDY    60  58  92 NE5       30.06R FOG
LANCASTER      CLOUDY    63  61  93 E8        30.05R
COATESVILLE    RAIN      59  59 100 NE5       30.06R
POTTSTOWN      CLOUDY    57  57 100 NE12      30.08S
BLUE BELL      CLOUDY    59  59 100 E6        30.08R
DOYLESTOWN     LGT RAIN  54  54 100 NE7       30.08R
WILLOW GROVE   NOT AVBL
NORTH PHILA    LGT RAIN  60  55  83 E13       30.10R
PHILADELPHIA   TSTM      62  58  86 NE10      30.07R FOG
$$


USA.gov is the U.S. government's official web portal to all federal, state and local government web resources and services.